Theta_e
320 320 321 320 322 322 320 321 323 323 324 324 324 325 325 326 325 324 325 325 326 325 326 323 324 325 326 328 327 327 325 324 322 321 319 321 318 319 322 321 323 323 324 323 320 315 314 312 315 321 322 324 325 325 326 325 326 327 327 328 328 327 325
321 319 320 321 319 320 319 321 323 322 323 324 325 324 323 325 325 324 323 322 322 323 325 324 324 326 326 325 325 324 323 324 324 322 321 319 321 319 320 319 320 320 321 322 321 319 314 313 313 316 317 321 321 323 324 325 326 326 327 327 325 319 316
318 318 319 318 317 319 321 321 321 321 320 320 321 323 323 325 324 321 319 320 322 324 324 323 324 324 324 325 325 325 324 324 324 323 322 322 323 322 321 320 318 318 318 318 318 318 316 315 312 314 316 316 316 318 321 323 325 325 325 323 317 314 313
318 318 318 317 319 319 318 319 320 321 321 320 319 321 322 321 321 322 320 322 323 324 324 323 321 323 322 322 323 323 323 322 322 322 323 321 321 320 320 319 318 318 315 314 317 317 315 312 313 313 314 317 317 317 319 323 324 325 323 317 313 312 312
320 319 317 317 319 318 317 319 320 319 318 318 319 318 318 319 320 320 322 321 321 319 319 319 319 319 319 320 320 320 320 320 321 321 319 320 320 320 320 320 319 321 321 320 320 319 317 315 315 314 314 317 318 317 322 320 324 323 317 313 312 311 310
319 319 318 318 319 318 319 321 319 318 317 317 316 319 318 319 321 319 319 317 317 317 317 317 317 318 318 317 317 317 317 317 317 316 314 314 316 317 316 317 321 321 321 321 322 320 320 319 317 314 314 316 311 313 319 318 315 317 315 313 312 312 313
319 319 319 319 319 319 321 320 319 318 317 317 318 317 317 318 318 319 318 317 317 317 318 316 317 316 315 315 314 313 313 314 315 314 313 313 313 313 312 311 312 313 315 320 321 321 320 318 314 312 310 310 311 312 314 310 314 311 311 313 313 312 311
321 321 320 321 321 319 321 321 320 318 316 317 317 317 317 316 317 317 317 316 316 317 316 316 316 314 313 314 314 313 313 313 314 314 314 314 315 312 311 311 312 311 312 313 313 317 320 319 316 313 310 307 307 305 304 306 307 309 309 311 313 311 310
322 322 321 321 321 320 319 321 319 317 317 316 317 317 317 315 314 315 315 315 316 317 316 314 314 313 313 313 312 311 312 319 313 313 313 313 313 312 312 312 312 311 312 313 312 311 312 317 317 316 312 309 304 299 301 302 305 306 311 308 310 312 312
321 321 320 320 320 319 321 321 319 318 317 316 317 315 313 313 314 314 314 313 314 313 313 313 313 312 311 311 312 311 312 313 314 312 312 313 312 311 311 311 311 312 311 310 310 312 311 311 313 312 312 310 305 301 298 299 300 301 306 309 305 308 311
321 321 320 320 320 320 321 320 318 316 315 317 317 316 316 315 316 319 313 312 312 314 314 313 313 312 311 311 311 312 313 312 312 311 313 313 313 313 312 313 312 310 310 310 310 309 309 311 309 311 310 310 308 303 300 298 299 301 301 303 304 304 308
321 320 320 320 320 320 319 318 317 316 316 316 316 316 315 314 314 313 313 314 313 314 314 313 313 313 312 312 312 313 313 312 311 311 312 312 311 311 310 310 310 310 312 310 310 309 308 310 309 308 309 311 309 305 303 300 297 301 301 300 302 305 306
321 320 319 319 318 319 320 319 318 316 316 317 316 316 315 314 314 313 314 313 313 313 313 312 312 312 313 312 312 312 311 312 312 310 312 312 314 311 310 310 310 310 310 309 309 310 307 309 310 309 310 309 307 305 304 300 298 299 303 299 300 302 304
319 320 319 318 318 318 319 319 318 317 317 316 316 315 315 315 315 315 314 314 313 313 313 312 313 314 313 311 311 311 311 308 308 308 310 310 312 311 309 308 309 310 311 310 309 310 309 309 310 310 310 308 306 305 303 301 298 298 301 304 302 302 303
319 319 318 317 318 318 318 319 318 317 317 317 316 316 315 316 316 316 314 314 314 315 314 314 314 313 313 312 312 315 311 309 310 309 308 309 310 312 308 308 310 310 312 311 310 311 309 308 310 310 309 309 307 306 304 302 299 298 297 302 302 303 305
320 319 318 318 319 319 318 318 317 316 317 316 316 316 316 316 316 315 314 315 314 314 314 314 314 312 311 311 312 312 312 310 309 308 307 309 310 310 310 309 310 311 313 309 309 310 310 310 309 310 309 309 309 308 306 304 302 300 298 300 302 303 305
320 318 318 318 318 318 318 318 317 317 318 316 316 316 316 316 315 315 315 314 314 314 315 316 314 313 313 312 312 313 312 310 310 310 310 309 311 311 309 308 309 310 310 308 308 310 309 309 308 308 309 309 309 308 308 305 304 301 300 301 303 303 306
320 318 318 318 317 318 318 318 318 316 317 315 315 317 316 315 315 315 315 314 314 314 315 316 315 314 313 314 313 314 312 312 313 313 314 314 317 312 311 309 311 311 310 307 311 310 310 309 310 309 309 309 310 311 310 309 308 306 304 302 303 305 306
318 318 319 318 316 317 317 317 317 318 319 314 314 316 314 315 315 315 315 314 314 315 315 314 315 315 316 315 315 314 314 313 313 314 314 314 314 314 314 313 311 311 313 312 310 310 310 309 310 309 309 310 310 309 308 307 308 308 305 303 304 305 305
318 319 319 319 318 318 317 317 317 318 318 317 316 316 314 314 315 314 315 314 314 315 315 315 315 315 316 316 316 315 316 314 315 315 314 315 314 314 314 315 313 313 314 313 312 311 310 308 309 307 307 308 308 307 307 306 308 307 307 306 306 304 305
318 319 319 319 318 318 318 319 317 316 317 316 316 316 315 314 315 314 313 313 314 313 314 314 317 317 316 317 317 315 317 316 313 314 315 316 317 315 315 314 314 314 313 313 312 312 312 310 308 307 307 306 305 305 305 304 305 305 305 306 305 304 305
318 317 317 318 317 317 317 318 317 318 319 318 320 319 318 318 317 315 313 317 316 316 317 316 316 315 315 316 316 317 316 315 314 313 314 314 314 315 313 313 313 314 316 318 314 312 313 312 309 307 305 306 305 305 304 304 305 304 304 304 303 303 302
319 319 318 316 317 317 317 318 317 317 319 318 317 318 319 319 318 318 317 314 314 315 316 316 314 308 311 315 316 318 316 314 314 314 313 312 312 314 313 313 315 321 313 309 306 301 300 303 308 309 307 306 305 304 304 303 304 304 304 303 302 300 302
320 319 319 318 318 319 318 318 317 317 317 316 315 315 316 316 317 317 316 314 313 314 315 317 303 297 299 307 317 316 315 314 314 314 313 312 312 312 313 314 314 316 313 309 303 298 296 296 296 296 298 302 307 307 305 304 303 303 302 303 301 302 300
319 319 320 320 318 318 319 318 317 318 317 317 316 315 314 314 314 314 315 314 313 314 314 312 301 299 297 300 308 316 315 315 314 314 314 314 313 313 313 312 313 316 313 311 306 302 298 295 294 294 294 294 294 295 301 305 303 301 300 301 301 300 299
318 318 318 319 318 318 317 318 317 317 317 317 316 315 313 313 312 313 314 314 313 313 313 307 299 299 296 294 299 311 316 315 314 314 314 314 314 313 312 312 312 315 318 318 313 306 301 298 295 294 295 295 294 294 293 296 299 304 303 302 301 300 300
316 316 317 317 317 317 317 316 316 315 314 314 314 313 313 312 312 313 314 314 314 314 315 309 300 296 295 294 296 303 316 314 314 314 314 314 314 313 313 313 312 312 313 315 312 309 304 300 298 299 299 298 297 295 294 293 294 296 300 303 301 300 300
310 312 315 316 317 315 314 313 314 312 311 312 312 310 310 310 310 311 312 313 314 315 316 308 299 296 294 293 293 298 313 315 314 313 314 314 314 314 314 315 313 313 313 313 314 310 306 302 301 301 301 300 300 301 299 299 300 303 303 304 303 301 298
305 306 306 306 307 312 313 315 314 312 312 311 310 310 309 309 309 309 310 310 310 311 314 301 294 294 294 293 293 306 311 314 313 313 312 312 311 311 311 312 313 312 312 312 309 302 303 305 304 304 303 302 299 296 294 294 293 297 300 299 298 296 295
304 304 305 305 305 305 306 311 312 313 312 311 311 311 312 312 310 308 308 309 308 308 312 302 292 293 293 292 298 308 309 312 313 312 311 310 309 307 307 311 313 312 311 310 303 297 299 302 305 303 303 301 300 297 295 294 292 291 292 293 293 293 291
303 303 303 304 304 304 304 304 307 311 311 311 311 312 313 313 312 311 309 310 312 311 311 305 294 294 294 293 301 309 310 311 311 312 308 307 303 300 302 307 313 312 309 303 295 297 297 303 304 303 302 301 299 298 295 295 295 293 292 291 290 290 290
301 302 302 302 303 303 303 303 304 305 305 306 310 313 313 313 313 312 311 311 313 313 312 308 296 295 294 293 300 308 310 311 311 307 305 302 300 299 298 299 305 307 304 298 294 296 298 303 305 304 303 302 300 299 298 295 295 293 294 294 293 293 293
301 301 301 301 301 301 302 302 303 304 304 305 305 304 306 312 313 313 312 312 312 312 311 308 299 294 294 294 296 307 310 309 309 305 304 302 300 297 296 296 295 292 292 292 292 293 295 298 304 303 303 301 300 299 298 297 297 294 294 294 293 293 293
300 301 302 301 301 301 301 301 302 303 303 304 303 303 304 303 306 308 311 311 312 310 312 310 301 292 294 294 294 299 309 310 305 305 304 302 300 298 296 295 294 292 291 292 292 292 293 293 295 299 299 297 296 299 298 297 297 297 296 295 294 293 293
300 301 301 300 299 299 300 300 301 301 300 300 300 300 301 303 304 303 305 307 309 311 313 311 309 293 293 294 293 294 306 309 305 307 304 302 299 298 296 295 294 292 291 291 291 291 291 291 292 294 293 291 292 294 298 297 296 296 296 295 294 293 293
298 300 299 299 299 298 298 298 299 299 299 299 300 300 300 302 303 303 302 302 306 310 310 310 303 298 293 293 293 293 296 304 296 306 305 302 300 297 295 294 294 292 291 290 290 291 291 291 291 290 289 289 290 291 293 294 293 295 294 293 292 291 290
298 298 298 298 298 297 297 297 298 298 298 298 299 298 299 300 301 301 302 301 303 303 304 306 301 297 296 293 293 293 293 296 296 301 306 305 300 297 295 294 293 290 290 290 290 290 290 291 290 289 289 289 289 291 292 292 292 293 290 290 291 290 290
Wind_Speed
6 6 7 6 6 6 6 4 4 4 5 6 6 5 4 4 4 5 4 3 4 3 3 4 4 4 3 2 1 1 2 2 2 4 3 4 4 0 0 2 1 3 5 7 6 4 6 5 2 3 1 3 3 4 4 5 5 5 6 6 6 6 5
8 7 6 6 6 6 6 3 4 4 6 5 4 3 4 4 4 4 5 5 3 3 4 5 4 4 3 4 4 4 2 2 2 2 3 2 4 3 2 2 2 3 5 4 3 5 4 5 1 1 1 2 3 4 5 4 4 4 5 6 6 6 6
7 6 7 7 6 4 6 5 5 6 5 6 6 6 4 3 4 5 5 6 5 5 4 4 4 4 4 4 4 4 3 3 2 3 4 4 4 3 3 4 3 3 4 4 2 5 4 2 7 5 3 5 5 2 3 4 4 4 5 6 6 6 5
9 8 8 6 5 6 6 5 6 6 5 6 6 6 5 5 4 4 5 4 4 4 5 5 4 3 3 4 4 4 4 4 3 3 3 3 3 4 3 4 5 6 5 3 5 4 4 4 6 4 3 2 5 6 2 3 5 4 4 5 6 5 5
10 8 9 7 6 7 6 7 7 7 7 6 5 6 5 5 5 6 5 5 6 6 4 4 4 5 4 4 5 5 4 4 4 4 3 3 2 2 1 3 3 3 4 6 4 6 7 6 8 7 5 3 3 1 3 2 2 4 4 5 5 6 5
9 9 8 7 6 7 6 7 7 7 7 6 5 5 4 4 5 7 6 6 6 6 5 5 4 5 5 5 5 5 5 5 3 4 4 3 2 2 2 3 3 2 4 4 6 6 6 5 6 7 5 5 4 4 4 5 3 3 4 5 6 5 5
9 8 7 7 6 6 7 7 8 7 7 6 5 5 5 5 5 5 4 4 4 5 6 6 6 5 5 6 5 5 4 3 4 4 4 4 5 4 5 6 6 4 3 4 4 6 6 6 5 6 8 4 4 6 5 3 6 5 1 2 4 6 6
8 8 7 7 6 6 6 7 7 7 7 6 7 5 6 6 5 5 5 5 5 5 6 6 6 6 5 5 4 4 4 4 5 6 7 7 7 7 7 6 6 6 5 4 6 4 3 3 4 4 7 10 6 3 4 3 3 3 6 2 4 5 6
7 7 7 6 6 6 6 7 8 7 7 7 6 6 5 6 6 5 5 4 4 5 5 6 6 4 4 5 4 4 4 3 5 6 5 7 7 6 5 4 6 5 4 5 5 4 4 5 5 6 6 6 8 6 4 5 3 4 6 5 1 4 6
7 6 7 6 7 6 6 8 8 8 7 7 6 6 6 5 5 5 4 5 6 6 6 6 6 5 5 4 5 5 5 4 5 4 5 7 5 6 5 5 4 5 4 4 4 5 4 4 5 4 5 7 6 9 5 4 3 4 1 4 4 1 4
6 6 6 6 6 6 7 8 8 8 7 7 7 5 5 5 5 5 5 5 5 5 5 5 5 5 5 5 4 4 4 4 4 4 4 5 5 4 4 5 4 5 3 4 4 4 4 4 6 6 5 5 8 8 6 7 3 0 3 0 2 3 3
5 5 5 6 5 7 8 8 8 8 7 7 7 6 6 6 5 4 4 4 4 5 5 5 5 5 5 5 4 4 3 4 4 4 3 5 4 5 4 4 5 5 4 4 5 5 4 6 4 5 6 6 6 7 8 6 6 0 2 3 1 4 5
4 6 6 6 6 7 8 8 8 8 8 7 6 6 6 6 5 5 4 4 5 5 5 5 6 5 5 5 5 5 4 4 4 4 2 2 3 4 4 5 4 4 4 5 5 5 4 5 5 7 6 7 7 6 7 5 6 4 0 3 4 5 6
5 5 6 6 6 6 7 7 8 7 7 7 6 6 6 6 5 5 4 4 4 4 5 5 4 4 4 5 5 5 4 5 5 4 5 5 4 4 4 4 4 4 4 5 4 5 6 5 7 7 6 7 7 6 8 6 7 4 1 0 4 4 4
5 5 6 6 6 6 6 7 7 7 7 7 6 6 6 6 5 6 5 5 4 4 4 4 5 5 4 4 4 4 4 4 4 4 5 5 5 5 4 4 4 3 3 4 4 4 4 4 6 7 7 6 6 5 4 5 3 4 4 0 1 2 3
5 6 6 5 5 5 5 6 7 7 6 6 6 6 6 6 6 6 6 5 5 5 4 4 5 5 4 4 4 4 4 5 5 5 5 5 5 5 5 4 2 2 3 4 4 4 5 4 3 6 5 6 6 3 3 5 4 3 5 3 2 2 1
6 6 6 5 5 4 4 5 5 6 5 6 7 4 6 6 6 6 6 6 6 5 5 5 6 6 5 4 4 5 4 4 3 3 4 4 4 5 5 4 2 2 2 3 4 4 5 4 4 4 5 4 5 5 4 4 5 5 3 4 1 3 3
7 5 7 5 6 6 5 5 4 4 4 5 5 4 5 6 5 6 6 7 6 6 6 5 6 6 5 4 5 5 5 4 3 4 5 4 5 5 5 5 4 3 2 3 5 4 4 5 4 6 5 4 4 5 5 4 2 2 5 4 3 2 1
8 12 5 4 6 5 5 4 4 3 4 5 4 4 6 5 5 6 6 6 6 6 6 6 5 6 5 5 5 5 5 4 3 4 4 4 4 3 4 4 4 5 4 5 4 4 4 5 5 5 5 4 4 4 5 4 4 4 5 5 4 1 0
5 4 1 4 1 4 3 3 4 4 4 6 5 4 6 6 5 5 6 5 6 7 7 6 6 6 6 5 5 5 4 3 3 3 3 3 2 3 4 4 4 4 5 5 5 5 5 4 5 4 3 4 3 4 5 4 5 4 3 3 2 2 2
6 5 1 2 3 1 2 3 1 2 0 3 4 4 6 6 4 4 5 5 5 5 5 4 4 4 4 4 5 4 5 5 3 3 4 4 3 3 3 3 3 3 3 5 5 5 6 5 4 4 2 3 3 5 4 3 4 4 3 2 1 3 2
4 3 1 1 1 2 1 2 3 3 4 2 3 4 3 3 2 0 2 4 4 4 6 5 5 5 4 4 4 7 6 4 4 3 3 3 2 1 2 2 3 3 3 4 8 7 6 6 6 5 2 4 4 3 2 3 3 5 4 5 5 2 4
2 1 1 1 1 2 1 1 2 4 4 4 3 4 4 4 5 5 5 3 3 4 4 3 6 9 7 5 4 6 4 4 4 4 4 2 1 1 1 1 2 5 5 6 9 11 11 10 8 6 5 5 4 3 3 3 4 4 5 6 4 3 5
1 1 1 1 3 3 3 1 2 3 3 3 3 3 4 4 4 4 4 4 4 3 3 3 10 10 9 9 7 6 5 4 4 5 4 4 4 4 4 2 2 4 5 5 5 11 12 12 12 11 9 7 4 4 4 5 3 3 3 4 3 5 5
1 1 1 2 2 4 6 3 2 2 3 3 2 2 2 3 3 3 3 2 2 4 4 7 11 11 9 8 7 6 6 6 5 5 5 6 5 5 5 3 3 3 4 5 5 7 9 11 11 11 10 10 9 9 5 5 4 3 3 5 4 3 4
4 2 2 4 6 8 4 2 1 0 1 1 1 1 2 3 3 3 3 3 3 3 3 5 8 11 11 8 8 7 6 6 6 5 5 5 5 5 4 4 4 4 4 10 8 6 7 7 8 11 11 10 8 9 10 10 6 5 5 6 6 3 2
9 10 11 10 9 4 2 2 1 1 1 1 0 0 0 2 2 3 3 4 4 4 4 7 6 8 9 9 8 6 5 6 5 6 6 6 5 5 6 6 5 4 4 5 6 7 7 7 7 6 5 5 5 5 7 8 7 6 4 5 6 4 1
3 3 3 5 6 4 3 3 3 2 2 1 1 2 3 2 2 3 4 4 4 5 6 7 6 10 10 10 9 7 5 5 5 6 6 6 5 6 6 5 6 6 6 5 5 7 7 7 6 6 5 5 5 4 4 4 3 4 5 5 6 7 5
8 7 7 6 4 0 2 5 5 3 3 3 2 2 3 3 3 2 2 1 2 4 5 2 5 8 10 9 8 5 4 5 5 5 5 4 4 4 3 3 5 5 4 4 7 13 10 7 6 7 7 6 5 5 4 1 2 4 6 6 6 6 5
7 7 7 8 6 5 4 4 3 0 3 3 3 4 5 4 4 4 4 4 4 4 5 5 6 7 8 9 6 3 3 4 5 5 4 3 3 3 3 4 4 5 3 4 7 13 14 11 6 6 6 5 5 5 5 2 3 7 9 9 9 9 9
9 9 8 7 6 6 4 1 1 0 2 3 4 6 6 6 5 4 4 5 6 5 6 7 10 10 10 10 7 5 6 6 5 4 3 4 3 2 1 2 9 5 5 4 8 14 14 11 7 6 6 7 6 5 4 3 3 3 5 7 6 5 6
8 9 9 8 8 8 7 7 4 1 0 1 4 7 6 6 6 5 5 6 9 8 6 7 10 10 10 10 8 4 6 6 5 3 6 4 2 3 3 6 4 7 7 7 11 13 12 8 7 7 7 7 6 6 6 5 5 4 1 2 1 0 0
7 6 6 7 8 8 7 8 8 7 6 6 7 4 4 6 7 7 7 7 6 6 7 6 9 13 11 12 11 6 5 5 5 5 6 7 5 3 4 5 6 9 10 11 10 10 9 9 6 5 6 6 6 5 4 5 4 4 3 2 1 2 3
8 7 6 6 4 5 6 6 6 6 7 8 6 7 6 3 4 7 8 8 8 6 6 7 8 13 13 12 12 9 5 5 5 7 7 6 6 6 5 5 5 8 11 12 12 12 11 11 9 6 5 5 3 5 8 5 4 6 4 3 2 2 2
7 6 7 8 9 8 8 7 6 7 7 6 7 7 6 8 7 5 5 5 5 7 8 12 7 11 13 13 13 12 6 5 3 7 6 6 5 5 6 6 6 7 12 13 13 13 13 13 13 9 7 9 11 13 7 5 5 4 3 1 1 2 3
7 6 7 8 8 7 7 7 8 8 7 7 7 8 8 7 6 7 6 5 6 7 7 8 12 10 13 14 14 13 10 6 5 5 8 7 6 6 5 3 3 8 13 13 13 14 14 14 11 8 11 11 10 10 7 4 3 2 2 1 2 0 1
9 8 8 8 8 7 8 7 7 6 7 6 7 7 7 8 7 7 8 8 6 3 3 5 4 7 10 16 14 13 12 11 6 4 5 8 7 9 9 8 5 9 11 13 13 13 13 11 9 11 10 10 9 6 3 3 2 3 2 2 1 1 5
Wind_Direction
135 129 120 119 117 123 112 122 116 127 122 126 133 136 131 104 96 93 107 144 149 152 113 110 103 101 98 89 137 116 104 113 118 128 143 143 136 202 28 64 66 86 83 81 126 144 133 136 345 3 341 11 54 69 88 99 91 94 99 96 90 84 79
124 124 121 118 116 121 122 106 92 94 75 63 68 78 101 114 105 79 71 80 113 111 118 94 89 86 88 96 97 93 107 111 124 150 113 153 125 143 103 28 63 82 82 92 105 122 137 127 95 175 103 355 44 65 93 100 103 107 111 106 94 87 81
125 119 114 119 125 116 111 117 117 88 70 69 69 68 63 54 65 79 70 56 83 121 100 104 87 71 68 82 98 100 94 82 72 100 124 132 122 147 143 153 106 94 79 70 74 107 84 87 144 163 163 141 119 111 88 100 112 116 112 99 94 91 89
133 126 120 126 121 118 122 122 109 101 88 78 73 62 72 79 67 65 58 52 69 90 107 95 97 92 73 74 66 64 64 76 66 59 64 76 112 111 105 125 144 153 164 152 157 140 144 128 113 130 147 181 138 126 169 153 127 122 104 98 100 93 93
136 134 137 147 145 139 138 126 114 102 97 87 77 84 77 72 77 73 65 55 55 60 74 102 89 88 75 64 60 61 59 62 62 61 57 60 50 49 59 93 111 121 104 124 149 137 139 150 142 147 157 136 87 69 140 125 137 125 113 110 108 107 100
133 138 141 144 150 142 137 126 119 118 112 103 104 85 71 82 88 75 66 62 60 60 66 76 80 67 63 62 61 59 58 59 71 88 84 84 114 113 83 46 81 88 122 119 117 126 127 129 135 140 144 145 139 148 162 162 156 130 124 128 127 121 118
138 139 142 146 153 148 139 138 134 134 131 137 126 119 118 94 87 97 92 78 71 65 69 76 76 75 75 76 74 73 69 57 55 53 57 64 79 100 90 75 64 66 68 95 118 117 125 131 148 151 146 143 143 158 170 161 131 126 95 123 124 115 105
139 138 145 148 147 142 140 135 131 127 130 133 121 128 108 99 96 94 100 101 91 79 77 79 82 81 78 72 72 79 64 55 49 46 39 50 54 59 63 73 74 61 53 63 97 105 127 136 154 185 145 141 156 159 140 115 119 115 138 99 127 113 119
136 135 139 139 138 140 142 124 130 128 127 121 117 111 110 113 113 112 112 107 90 86 89 91 88 82 74 79 71 69 56 36 57 51 46 57 59 62 66 57 57 52 67 79 96 122 132 165 174 166 149 149 141 122 105 108 113 124 145 124 55 127 137
137 139 143 141 138 141 125 123 128 128 122 117 120 120 124 117 117 118 107 104 106 109 103 104 104 105 102 98 94 86 84 69 72 67 58 65 58 61 58 62 71 60 49 59 59 60 66 98 109 107 142 152 151 130 136 117 147 144 196 133 133 194 146
142 137 136 136 130 116 110 117 118 120 125 127 127 132 119 121 125 120 119 120 119 116 122 119 118 116 108 107 111 107 114 99 86 67 66 71 60 53 41 31 30 38 15 52 53 57 71 86 95 117 144 157 139 136 140 134 135 169 162 246 131 142 166
126 124 128 126 115 111 120 125 125 130 125 123 124 122 120 123 122 126 122 123 121 126 125 124 123 128 127 124 126 129 119 106 111 105 91 93 87 81 72 51 31 30 7 19 15 24 59 75 78 65 63 86 108 124 132 127 113 271 139 148 155 145 153
119 129 131 122 115 118 125 126 126 125 134 129 131 130 129 132 136 131 128 131 128 127 128 135 136 139 130 139 142 129 130 115 117 120 93 73 95 89 73 60 44 41 19 35 16 4 37 55 63 58 64 84 94 103 104 96 110 125 239 155 145 156 155
123 128 121 117 118 120 123 126 131 136 127 133 137 134 139 141 143 141 138 140 145 139 142 146 143 135 136 144 150 147 151 136 129 131 114 93 88 87 82 71 51 31 40 46 30 29 38 51 68 68 72 87 95 109 111 113 114 121 27 132 129 145 130
130 121 117 117 118 121 124 127 133 130 133 149 146 147 149 151 147 148 153 160 156 157 145 143 131 124 128 127 128 134 145 121 110 116 108 109 111 116 102 83 43 20 38 59 48 51 58 79 93 84 82 92 98 97 122 107 128 124 158 32 83 77 125
121 116 109 109 109 117 123 126 135 137 139 154 156 153 157 157 158 160 158 161 158 160 168 143 132 124 135 138 112 120 135 131 136 140 135 141 135 128 114 118 112 59 38 52 46 51 58 57 79 99 101 104 106 114 140 132 123 132 153 196 190 124 153
97 97 98 99 102 111 118 131 140 144 149 156 165 165 159 161 162 162 158 163 162 169 168 149 147 148 161 156 133 126 125 135 152 143 148 163 143 127 133 113 122 108 75 66 45 58 62 62 63 82 84 83 107 106 127 141 151 138 162 129 254 167 205
38 87 116 127 141 142 144 146 147 159 143 157 176 146 171 162 164 165 162 166 165 159 168 159 157 160 163 153 148 141 145 154 158 138 139 147 157 151 145 151 172 138 106 75 57 76 83 75 64 77 78 63 74 88 78 73 63 108 125 144 192 259 197
37 357 336 150 152 148 146 140 147 165 144 175 192 150 168 171 170 175 173 167 166 164 170 171 161 164 161 158 150 161 160 154 147 133 141 130 131 131 117 153 172 132 103 110 116 105 95 97 82 73 81 76 82 88 101 103 83 81 131 154 167 131 345
116 123 295 331 321 136 123 161 171 190 177 173 182 159 175 172 183 169 180 158 168 169 172 174 171 164 162 153 150 153 145 132 78 61 46 49 60 99 97 107 121 124 129 132 130 126 115 98 91 82 80 88 75 79 61 57 73 70 105 136 145 179 145
147 188 250 50 358 348 76 37 333 249 328 189 172 150 170 181 192 167 186 179 176 171 150 117 106 108 128 139 128 125 103 104 120 91 74 70 73 86 106 106 93 85 127 146 132 139 130 127 114 98 98 82 62 61 59 45 44 61 66 65 142 187 194
164 186 154 257 99 306 35 44 67 54 62 51 60 59 65 70 49 341 73 103 121 109 117 132 131 134 118 91 109 115 134 149 133 127 145 150 155 106 78 104 112 112 83 135 136 126 132 144 136 131 148 122 119 123 110 61 71 81 70 60 30 4 76
92 144 212 320 319 330 326 70 89 82 78 78 75 81 77 70 75 78 102 94 91 117 130 141 128 114 111 117 99 121 137 160 147 164 181 183 188 179 167 163 152 103 110 128 129 122 114 106 111 130 158 144 141 114 104 93 83 103 95 81 60 61 78
176 177 123 93 326 320 260 193 130 115 114 116 117 109 95 91 96 106 123 144 149 146 158 148 142 126 114 113 119 133 141 160 169 176 189 195 200 195 204 181 155 141 126 127 129 126 119 116 113 107 94 88 96 134 126 106 112 106 103 103 103 86 102
295 208 170 60 36 301 261 154 149 149 131 117 125 87 88 122 116 116 121 141 179 188 182 178 158 140 123 130 143 146 154 160 175 188 198 202 195 193 209 184 167 183 154 154 144 124 115 118 118 114 109 101 87 69 92 139 142 94 105 105 84 108 128
210 213 125 189 203 203 208 130 162 76 159 176 120 131 143 126 135 144 143 164 219 243 237 222 176 155 143 148 167 155 163 169 175 191 196 206 198 190 193 195 192 197 188 167 153 145 134 119 114 118 113 100 88 96 91 85 93 127 141 110 120 83 114
177 172 180 185 181 184 148 172 187 152 114 57 69 17 152 164 181 171 184 180 203 224 230 242 202 138 137 149 173 184 163 172 181 187 199 204 205 192 191 184 190 195 190 172 160 155 143 137 138 131 123 115 117 91 75 80 84 87 94 130 133 128 318
8 359 113 146 144 147 175 146 139 132 131 155 229 258 261 249 213 210 211 208 201 222 232 230 181 160 156 162 178 185 182 176 182 190 199 203 202 203 197 189 190 197 187 178 172 164 149 150 144 139 129 125 114 97 86 74 70 92 99 103 116 123 128
33 43 37 40 33 108 178 172 160 168 175 218 225 241 256 234 250 240 239 285 278 244 249 217 172 165 163 162 167 180 182 181 186 190 195 194 188 198 205 194 201 210 185 168 191 169 154 147 144 143 137 126 105 97 81 57 39 95 110 118 126 135 143
28 32 26 23 30 44 26 354 308 232 183 212 241 261 259 253 226 217 231 224 227 234 241 230 194 174 165 162 160 191 197 197 191 191 197 156 147 165 196 199 197 210 167 186 165 157 151 145 146 145 136 127 126 119 127 105 64 83 100 111 127 138 146
13 11 18 18 10 3 15 73 68 352 292 275 249 234 237 250 253 229 224 232 219 214 222 217 195 183 177 179 181 183 194 194 203 188 137 127 123 111 14 222 200 176 174 168 157 157 154 145 144 150 142 136 138 138 147 143 115 82 95 99 103 127 148
13 5 5 359 359 355 354 342 338 8 293 215 246 256 236 227 248 242 218 208 213 216 220 219 197 192 183 185 197 209 195 189 192 154 135 121 99 87 64 38 91 147 151 142 154 150 153 149 149 156 155 148 154 167 180 161 143 122 119 96 58 73 256
3 2 354 348 344 340 336 340 339 337 333 339 329 310 246 239 235 235 236 243 235 206 190 188 193 193 189 192 201 202 199 186 186 159 154 150 124 92 84 91 78 100 114 118 115 108 106 123 146 159 150 162 162 188 159 151 160 141 147 159 219 213 236
357 352 349 342 332 331 331 325 322 325 322 325 330 323 319 287 244 242 234 220 219 214 193 185 187 187 192 194 195 195 192 203 170 157 163 157 150 142 130 120 119 126 121 115 112 106 101 100 107 112 126 140 166 153 136 128 156 153 154 172 182 205 268
355 355 352 353 352 345 337 332 320 316 313 313 313 308 306 310 308 283 264 253 232 216 206 194 177 188 195 195 189 192 190 206 165 147 145 154 152 154 152 148 143 143 124 118 114 111 107 102 100 95 102 111 110 117 131 148 148 137 129 109 31 10 346
353 354 349 347 348 344 341 339 333 327 314 303 298 300 303 301 300 296 291 266 245 236 219 203 185 186 197 191 189 187 196 200 127 172 154 166 164 131 98 91 104 136 128 124 120 117 111 104 94 114 123 101 99 109 112 101 113 107 112 122 106 104 317
353 346 344 347 346 345 340 337 334 330 325 316 308 297 292 298 298 300 293 290 268 261 343 333 251 204 193 192 187 186 188 212 210 189 185 164 157 155 147 137 147 143 128 126 120 115 115 110 117 112 98 100 93 88 94 84 85 114 97 76 59 22 24